Corpus Christi, TX

6:56 AM CDT on June 27, 2017 (GMT -0500)
Corpus Christi International

Weather History for KCRP - February, 2012

Change the Weather History Date:

Thursday, February 9, 2012

  Actual Average Record
Temperature  
Mean Temperature 53 °F 59 °F  
Max Temperature 57 °F 70 °F 93 °F (1990)
Min Temperature 48 °F 49 °F 25 °F (1933)
Degree Days  
Heating Degree Days 12 7  
Month to date heating degree days 54 67  
Since 1 July heating degree days 510 694  
Cooling Degree Days 0 2  
Month to date cooling degree days 29 11  
Year to date cooling degree days 90 41  
Growing Degree Days 2 (Base 50)    
Moisture  
Dew Point 49 °F    
Average Humidity 84    
Maximum Humidity 93    
Minimum Humidity 74    
Precipitation  
Precipitation 0.18 in 0.06 in 0.98 in (1942)
Month to date precipitation 2.94 0.52  
Year to date precipitation 3.39 2.06  
Snow  
Snow 0.00 in - - ()
Month to date snowfall 0.0  
Since 1 July snowfall 0.0  
Snow Depth 0.00 in    
Sea Level Pressure  
Sea Level Pressure 30.21 in    
Wind  
Wind Speed 9 mph (NE)    
Max Wind Speed 17 mph    
Max Gust Speed 23 mph    
Visibility 9 miles    
Events Rain    
T = Trace of Precipitation, MM = Missing Value Source: NWS Daily Summary

Daily Weather History Graph

Daily Weather History Graph

Search for Another Location

Airport or City:

Trip Planner

Search our weather history database for the weather conditions in past years. The results will help you decide how hot, cold, wet, or windy it might be!

Date:

Astronomy

Feb. 09, 2012 Rise Set
Actual Time 7:12 AM CST 6:16 PM CST
Civil Twilight 6:48 AM CST 6:40 PM CST
Nautical Twilight 6:20 AM CST 7:08 PM CST
Astronomical Twilight 5:52 AM CST 7:35 PM CST
Moon 8:27 PM CST (2/9) 8:04 AM CST (2/9)
Length of Visible Light 11h 52m
Length of Day
11h 04m
Waning Gibbous, 96% of the Moon is Illuminated
Feb 9
Waning Gibbous
Feb 14
Last Quarter
Feb 21
New
Feb 29
First Quarter
Mar 8
Full

Hourly Weather History & Observations

Time (CST) Temp. Dew Point Humidity Pressure Visibility Wind Dir Wind Speed Gust Speed Precip Events Conditions
12:51 AM 50.0 °F 45.0 °F 83% 30.30 in 10.0 mi North 5.8 mph - N/A   Mostly Cloudy
1:51 AM 50.0 °F 45.0 °F 83% 30.30 in 10.0 mi North 6.9 mph - N/A   Scattered Clouds
2:51 AM 48.9 °F 44.1 °F 83% 30.28 in 10.0 mi North 10.4 mph - N/A   Partly Cloudy
3:51 AM 50.0 °F 44.1 °F 80% 30.26 in 10.0 mi North 12.7 mph - N/A   Mostly Cloudy
4:51 AM 50.0 °F 44.1 °F 80% 30.25 in 10.0 mi NNE 11.5 mph - N/A   Mostly Cloudy
5:51 AM 48.9 °F 44.1 °F 83% 30.25 in 10.0 mi NNE 12.7 mph - N/A   Partly Cloudy
6:51 AM 50.0 °F 43.0 °F 77% 30.26 in 10.0 mi NE 11.5 mph - N/A   Partly Cloudy
7:51 AM 50.0 °F 44.1 °F 80% 30.27 in 10.0 mi NNE 11.5 mph - N/A   Partly Cloudy
8:51 AM 50.0 °F 44.1 °F 80% 30.30 in 10.0 mi NE 10.4 mph - N/A   Partly Cloudy
9:51 AM 51.1 °F 44.1 °F 77% 30.31 in 10.0 mi NE 11.5 mph - N/A   Mostly Cloudy
10:51 AM 51.1 °F 46.0 °F 83% 30.32 in 6.0 mi NE 8.1 mph - 0.01 in Rain Light Rain
11:51 AM 52.0 °F 46.9 °F 83% 30.28 in 10.0 mi NE 6.9 mph - 0.04 in   Overcast
12:51 PM 53.1 °F 48.9 °F 86% 30.23 in 7.0 mi NNE 11.5 mph - 0.01 in Rain Light Rain
1:51 PM 54.0 °F 51.1 °F 90% 30.19 in 7.0 mi NE 8.1 mph - 0.02 in Rain Light Rain
2:51 PM 55.0 °F 52.0 °F 89% 30.17 in 7.0 mi ENE 9.2 mph - 0.02 in Rain Light Rain
3:42 PM 55.4 °F 53.6 °F 94% 30.15 in 3.0 mi ENE 10.4 mph - 0.04 in Rain Light Rain
3:51 PM 55.9 °F 53.1 °F 90% 30.14 in 3.0 mi ENE 11.5 mph - 0.05 in Rain Light Rain
4:21 PM 55.4 °F 53.6 °F 94% 30.15 in 8.0 mi NE 5.8 mph - 0.03 in Rain Light Rain
4:51 PM 55.9 °F 53.1 °F 90% 30.14 in 10.0 mi NE 11.5 mph - 0.03 in   Overcast
5:51 PM 55.9 °F 53.1 °F 90% 30.13 in 9.0 mi NE 11.5 mph - N/A   Overcast
6:27 PM 55.4 °F 53.6 °F 94% 30.14 in 9.0 mi NE 10.4 mph - N/A   Overcast
6:51 PM 55.9 °F 53.1 °F 90% 30.14 in 10.0 mi NNE 9.2 mph - N/A   Overcast
7:03 PM 55.4 °F 53.6 °F 94% 30.14 in 10.0 mi NE 9.2 mph - N/A   Overcast
7:51 PM 57.0 °F 53.1 °F 87% 30.15 in 10.0 mi NNE 8.1 mph - N/A   Overcast
8:51 PM 55.9 °F 53.1 °F 90% 30.16 in 10.0 mi NNE 8.1 mph - N/A   Overcast
9:51 PM 55.9 °F 52.0 °F 87% 30.17 in 10.0 mi NE 6.9 mph - N/A   Overcast
10:15 PM 55.4 °F 53.6 °F 94% 30.15 in 10.0 mi NNE 5.8 mph - 0.00 in Rain Light Rain
10:51 PM 55.0 °F 52.0 °F 89% 30.15 in 10.0 mi NE 5.8 mph - 0.00 in   Mostly Cloudy
11:51 PM 55.9 °F 53.1 °F 90% 30.13 in 10.0 mi NE 5.8 mph - N/A   Overcast